• Join FlightAware (Why Join?)
  • Login
  • US Flag 
04:13PM EST


 

Airport Tracker/Info


-or-


 

Live Flight TrackerFlight Track Log ✈ DAL1562 ✈ 27-Apr-2013 ✈ KDTW - KPHL

Flight Track Log - Related Links

Times and Time Zones

All times are in EDT time to prevent confusion due to time zone crossing. See the DAL1562 flight status page for this flight to view local times or setup timezone preferences in your user account.

Time Position Orientation Groundspeed Altitude Reporting Facility
EDT Latitude Longitude Course Direction KTS MPH feet Rate Location/Type
02:11PM 42.1994 -83.3581 96° East 152 175 1,600  Level Cleveland Center
02:11PM 42.1767 -83.3572 178° South 169 194 2,800 2,474 Climbing Cleveland Center
02:12PM 42.1100 -83.3542 178° South 250 288 5,600 2,975 Climbing Cleveland Center
02:13PM 42.2167 -82.8299 90° East  Level FlightAware Approximate
02:13PM 42.0678 -83.2908 132° Southeast 275 316 8,700  Level Cleveland Center
02:14PM 42.2167 -82.6542 90° East  Level FlightAware Approximate
02:14PM 42.0847 -83.1881 77° East 290 334 10,200  Level Cleveland Center
02:15PM 42.2167 -82.4785 90° East  Level FlightAware Approximate
02:15PM 42.1125 -83.0631 73° East 381 438 11,400  Level Cleveland Center
02:16PM 42.2059 -82.3036 96° East  Level FlightAware Approximate
02:16PM 42.1383 -82.9158 77° East 397 457 14,300  Level Cleveland Center
02:18PM 42.1942 -82.6094 76° East 417 480 18,700 2,200 Climbing Cleveland Center
02:19PM 42.2200 -82.4450 78° East 431 496 20,900 1,950 Climbing Cleveland Center
02:20PM 42.2103 -82.2708 94° East 450 518 22,600 1,650 Climbing Cleveland Center
02:21PM 42.2000 -82.1050 95° East 472 543 24,200 1,450 Climbing Cleveland Center
02:22PM 42.1667 -81.9278 104° East 493 567 25,500 1,450 Climbing Cleveland Center
02:23PM 42.0581 -81.7800 135° Southeast 488 562 27,100 1,800 Climbing Cleveland Center
02:24PM 41.9508 -81.6608 140° Southeast 493 567 29,100 1,850 Climbing Cleveland Center
02:25PM 41.8433 -81.5392 140° Southeast 499 574 30,800 1,600 Climbing Cleveland Center
02:26PM 41.7381 -81.4181 139° Southeast 499 574 32,300 1,600 Climbing Cleveland Center
02:27PM 41.6347 -81.3000 139° Southeast 499 574 34,000 1,350 Climbing Cleveland Center
02:28PM 41.5289 -81.1794 140° Southeast 492 566 35,000 900 Climbing Cleveland Center
02:29PM 41.4317 -81.0428 133° Southeast 502 578 35,800 750 Climbing Cleveland Center
02:30PM 41.3425 -80.9233 135° Southeast 508 585 36,500 900 Climbing Cleveland Center
02:31PM 41.2428 -80.7847 134° Southeast 515 593 37,600 1,200 Climbing Cleveland Center
02:32PM 41.1428 -80.6492 134° Southeast 515 593 38,900 700 Climbing Cleveland Center
02:33PM 41.0511 -80.5169 133° Southeast 502 578 39,000 50 Climbing Cleveland Center
02:34PM 40.9531 -80.3853 135° Southeast 497 572 39,000  Level Cleveland Center
02:35PM 40.8483 -80.2372 133° Southeast 497 572 39,000  Level Cleveland Center
02:36PM 40.7747 -80.0814 122° Southeast 497 572 39,000  Level Cleveland Center
02:37PM 40.7219 -79.9256 114° Southeast 501 577 39,000  Level Cleveland Center
02:38PM 40.6603 -79.7592 116° Southeast 501 577 39,000  Level Cleveland Center
02:39PM 40.5944 -79.5769 115° Southeast 501 577 39,000  Level Cleveland Center
02:40PM 40.5322 -79.4083 116° Southeast 501 577 39,000  Level Cleveland Center
02:41PM 40.4744 -79.2594 117° Southeast 506 582 39,000  Level Cleveland Center
02:42PM 40.4119 -79.0942 116° Southeast 506 582 39,000 -50 Level Cleveland Center
02:43PM 40.3533 -78.9239 114° Southeast 506 582 38,900 -600 Descending Cleveland Center
02:44PM 40.3192 -78.7422 104° East 497 572 37,800 -1,900 Descending Cleveland Center
02:45PM 40.3161 -78.5572 91° East 497 572 35,100 -2,850 Descending Cleveland Center
02:46PM 40.3125 -78.3694 91° East 502 578 32,100 -3,112 Descending Cleveland Center
02:48PM 40.3122 -77.9822 90° East 488 562 25,400 -2,439 Descending New York Center
02:49PM 40.3103 -77.8050 91° East 483 556 24,500 -893 Descending New York Center
02:50PM 40.3103 -77.6306 90° East 483 556 23,600 -942 Descending New York Center
02:51PM 40.3086 -77.4753 91° East 483 556 22,600 -992 Descending New York Center
02:52PM 40.3058 -77.3033 91° East 478 550 21,600 -1,008 Descending New York Center
02:53PM 40.3025 -77.1369 91° East 471 542 20,600 -1,008 Descending New York Center
02:54PM 40.2778 -76.9742 101° East 458 527 19,600 -1,033 Descending New York Center
02:55PM 40.2406 -76.8050 106° East 446 513 18,500 -800 Descending New York Center
02:56PM 40.2100 -76.6692 106° East 439 505 18,000 -706 Descending New York Center
02:57PM 40.1736 -76.5167 107° East 433 498 17,100 -1,100 Descending New York Center
02:58PM 40.1353 -76.3586 108° East 428 493 15,800 -1,884 Descending New York Center
02:59PM 40.1133 -76.2075 101° East 416 479 13,300 -2,182 Descending New York Center
03:00PM 40.1067 -76.0767 94° East 409 471 11,400 -1,220 Descending New York Center
03:01PM 40.0961 -75.9403 96° East 404 465 10,900 -1,109 Descending New York Center
03:02PM 40.0847 -75.8200 97° East 327 376 9,200 -1,438 Descending New York Center
03:03PM 40.0786 -75.7164 94° East 290 334 8,000 -605 Descending New York Center
03:04PM 40.0744 -75.6183 93° East 278 320 8,000 -151 Level New York Center
03:05PM 40.0700 -75.5206 93° East 273 314 7,700 -984 Descending New York Center
03:06PM 40.0550 -75.4272 102° East 273 314 6,000 -836 Descending New York Center
03:07PM 39.9978 -75.3989 159° South 215 247 6,000  Level New York Center
03:08PM 39.9419 -75.3872 171° South 208 239 6,000 -153 Level New York Center
03:09PM 39.9206 -75.4533 247° West 172 198 5,700 -712 Descending New York Center
03:10PM 39.9011 -75.5225 250° West 194 223 4,600 -1,091 Descending New York Center
03:11PM 39.8661 -75.5606 220° Southwest 194 223 3,500 -1,169 Descending New York Center
03:11PM 39.8500 -75.5500 153° Southeast 200 230 3,100 -1,412 Descending Philadelphia TRACON